Weather History for LIEA - July, 2013

Change the Weather History Date:

Friday, July 12, 2013

  Actual Average Record
Temperature  
Mean Temperature 75 °F -  
Max Temperature 88 °F 84 °F 100 °F (2011)
Min Temperature 62 °F 63 °F 57 °F (1996)
Cooling Degree Days 10    
Growing Degree Days 25 (Base 50)    
Moisture  
Dew Point 62 °F    
Average Humidity 62    
Maximum Humidity 88    
Minimum Humidity 31    
Precipitation  
Precipitation 0.00 in 0.01 in - ()
Sea Level Pressure  
Sea Level Pressure 30.00 in    
Wind  
Wind Speed 4 mph ()    
Max Wind Speed 18 mph    
Max Gust Speed -    
Visibility 10.2 miles    
Events      
Averages and records for this station are not official NWS values.
T = Trace of Precipitation, MM = Missing Value Source: Averaged Metar Reports

Daily Weather History Graph

Daily Weather History Graph

Search for Another Location

Airport or City:

Trip Planner

Search our weather history database for the weather conditions in past years. The results will help you decide how hot, cold, wet, or windy it might be!

Date:

Astronomy

Jul. 12, 2013 Rise Set
Actual Time 6:06 AM CEST 8:58 PM CEST
Civil Twilight 5:33 AM CEST 9:30 PM CEST
Nautical Twilight 4:52 AM CEST 10:11 PM CEST
Astronomical Twilight 4:05 AM CEST 10:58 PM CEST
Moon 10:08 AM CEST (7/12) 10:58 PM CEST (7/12)
Length of Visible Light 15h 56m
Length of Day
14h 51m
Waxing Crescent, 15% of the Moon is Illuminated
Jul 12
Waxing Crescent
Jul 16
First Quarter
Jul 22
Full
Jul 29
Last Quarter
Aug 6
New

Hourly Weather History & Observations

Time (CEST) Temp. Heat Index Dew Point Humidity Pressure Visibility Wind Dir Wind Speed Gust Speed Precip Events Conditions
12:20 AM 69.8 °F - 64.4 °F 83% 29.95 in - Variable 2.3 mph - N/A   Clear
12:50 AM 68.0 °F - 64.4 °F 88% 29.95 in - Calm Calm - N/A   Clear
1:20 AM 68.0 °F - 62.6 °F 83% 29.95 in - North 3.5 mph - N/A   Clear
1:50 AM 68.0 °F - 62.6 °F 83% 29.95 in - NNW 3.5 mph - N/A   Clear
2:00 AM 67 °F - 64 °F 85% 29.96 in 9 mi North 2.3 mph - -   Clear
2:20 AM 66.2 °F - 62.6 °F 88% 29.95 in - NNE 3.5 mph - N/A   Clear
2:50 AM 66.2 °F - 60.8 °F 83% 29.95 in - Variable 2.3 mph - N/A   Clear
3:20 AM 64.4 °F - 60.8 °F 88% 29.95 in - Variable 1.2 mph - N/A   Clear
3:50 AM 64.4 °F - 60.8 °F 88% 29.95 in - Variable 2.3 mph - N/A   Clear
4:20 AM 64.4 °F - 59.0 °F 83% 29.95 in - North 3.5 mph - N/A   Clear
4:50 AM 66.2 °F - 59.0 °F 78% 29.95 in - North 3.5 mph - N/A   Clear
5:00 AM 65 °F - 59 °F 75% 29.97 in 9 mi NNE 3.5 mph - -   Clear
5:50 AM 64.4 °F - 59.0 °F 83% 29.98 in - Variable 2.3 mph - N/A   Clear
6:20 AM 62.6 °F - 59.0 °F 88% 29.98 in 6.2 mi Variable 2.3 mph - N/A   Partly Cloudy
6:50 AM 66.2 °F - 60.8 °F 83% 29.98 in 6.2 mi NNW 3.5 mph - N/A   Partly Cloudy
7:20 AM 68.0 °F - 60.8 °F 78% 29.98 in - Calm Calm - N/A   Clear
7:50 AM 69.8 °F - 62.6 °F 78% 30.01 in - Variable 1.2 mph - N/A   Clear
8:00 AM 72 °F - 62 °F 64% 30.02 in 18 mi WNW 1.2 mph - -  
8:20 AM 75.2 °F - 64.4 °F 69% 30.01 in - Variable 2.3 mph - N/A   Clear
8:50 AM 77.0 °F - 66.2 °F 69% 30.01 in - NNE 4.6 mph - N/A   Clear
9:20 AM 78.8 °F - 66.2 °F 65% 30.01 in - NNE 3.5 mph - N/A   Clear
9:50 AM 82.4 °F 83.4 °F 62.6 °F 51% 30.01 in - Variable 2.3 mph - N/A   Clear
10:20 AM 84.2 °F 85.0 °F 62.6 °F 48% 30.01 in - Variable 3.5 mph - N/A   Clear
10:50 AM 84.2 °F 83.8 °F 59.0 °F 42% 30.01 in - South 5.8 mph - N/A   Clear
11:00 AM 84 °F - 58 °F 31% 30.01 in 18 mi South 5.8 mph - -   Clear
11:20 AM 84.2 °F 83.8 °F 59.0 °F 42% 30.01 in - South 6.9 mph - N/A   Clear
11:50 AM 86.0 °F 85.4 °F 59.0 °F 40% 30.01 in - South 8.1 mph - N/A   Clear
12:20 PM 86.0 °F 84.9 °F 57.2 °F 37% 30.01 in 6.2 mi Variable 5.8 mph - N/A   Partly Cloudy
12:50 PM 86.0 °F 86.6 °F 62.6 °F 45% 30.01 in 6.2 mi WNW 8.1 mph - N/A   Partly Cloudy
1:20 PM 86.0 °F 88.2 °F 66.2 °F 51% 30.01 in 6.2 mi WNW 6.9 mph - N/A   Partly Cloudy
1:50 PM 86.0 °F 88.2 °F 66.2 °F 51% 30.01 in 6.2 mi WNW 8.1 mph - N/A   Partly Cloudy
2:00 PM 86 °F - 65 °F 40% 30.02 in 19 mi WNW 17.9 mph - -   Partly Cloudy
2:20 PM 86.0 °F 86.6 °F 62.6 °F 45% 30.01 in 6.2 mi WNW 9.2 mph - N/A   Partly Cloudy
2:50 PM 86.0 °F 85.4 °F 59.0 °F 40% 30.01 in 6.2 mi WNW 10.4 mph - N/A   Partly Cloudy
3:20 PM 87.8 °F 86.1 °F 55.4 °F 33% 30.01 in - WNW 10.4 mph - N/A   Clear
3:50 PM 86.0 °F 85.4 °F 59.0 °F 40% 30.01 in - WNW 11.5 mph - N/A   Clear
4:20 PM 86.0 °F 84.9 °F 57.2 °F 37% 30.01 in 6.2 mi WNW 11.5 mph - N/A   Partly Cloudy
4:50 PM 86.0 °F 84.5 °F 55.4 °F 35% 30.01 in 6.2 mi WNW 10.4 mph - N/A   Partly Cloudy
5:20 PM 84.2 °F 83.8 °F 59.0 °F 42% 30.01 in - WNW 10.4 mph - N/A   Clear
5:50 PM 86.0 °F 84.5 °F 55.4 °F 35% 30.01 in - WNW 10.4 mph - N/A   Clear
6:20 PM 84.2 °F 83.5 °F 57.2 °F 40% 30.01 in - West 10.4 mph - N/A   Clear
6:50 PM 84.2 °F 83.8 °F 59.0 °F 42% 30.01 in - WNW 8.1 mph - N/A   Clear
7:20 PM 82.4 °F 83.4 °F 62.6 °F 51% 30.01 in - WNW 8.1 mph - N/A   Clear
7:50 PM 82.4 °F 83.4 °F 62.6 °F 51% 30.01 in - WNW 5.8 mph - N/A   Clear
8:00 PM 80 °F - 64 °F 48% 30.02 in 19 mi WNW 5.8 mph - -   Scattered Clouds
8:20 PM 78.8 °F - 66.2 °F 65% 30.01 in - WNW 4.6 mph - N/A   Clear
8:50 PM 78.8 °F - 64.4 °F 61% 30.01 in - NNW 4.6 mph - N/A   Clear
9:20 PM 77.0 °F - 64.4 °F 65% 30.04 in - North 2.3 mph - N/A   Clear
9:50 PM 75.2 °F - 64.4 °F 69% 30.04 in - North 2.3 mph - N/A   Clear
10:20 PM 73.4 °F - 64.4 °F 73% 30.04 in - Calm Calm - N/A   Clear
10:50 PM 71.6 °F - 64.4 °F 78% 30.06 in - NNW 2.3 mph - N/A   Clear
11:00 PM 72 °F - 65 °F 72% 30.06 in 19 mi North 4.5 mph - -  
11:20 PM 71.6 °F - 64.4 °F 78% 30.04 in - Variable 2.3 mph - N/A   Clear
11:50 PM 69.8 °F - 64.4 °F 83% 30.06 in - Variable 2.3 mph - N/A   Clear